Regional Weather Roundup
Issued by NWS

Home | Current Version | Previous Version | Text Only | Print | Product List | Glossary On
Versions: 1 2 3 4 5 6 7 8 9 10 11 12 13 14 15 16 17 18 19 20 21 22 23 24 25 26 27 28 29 30 31 32 33 34 35 36 37 38 39 40 41 42 43 44 45 46 47 48 49 50
000
ASUS44 KLUB 240901
RWRTX
WEST TEXAS WEATHER ROUNDUP
NATIONAL WEATHER SERVICE LUBBOCK TX
300 AM CST TUE JAN 24 2017

NOTE: "FAIR" INDICATES FEW OR NO CLOUDS BELOW 12,000 FEET WITH NO
SIGNIFICANT WEATHER AND/OR OBSTRUCTIONS TO VISIBILITY.

TXZ004-006>008-010-012-014-016-OKZ002-241000-
TEXAS PANHANDLE/OKLAHOMA PANHANDLE

CITY           SKY/WX    TMP DP  RH WIND       PRES   REMARKS
AMARILLO       PTCLDY    44  31  60 S17       29.59R
BORGER         CLOUDY    55  29  36 S22G31    29.53F
CANADIAN       CLOUDY    51  33  51 W7        29.54R
DALHART        CLEAR     42  30  62 SW15      29.52S
DUMAS          CLEAR     42  29  61 S14       29.53S
GUYMON         CLEAR     46  29  51 SW14      29.47F
HEREFORD       PTCLDY    45  31  56 S13G20    29.60S
PAMPA          CLOUDY    51  32  48 SW18      29.56S
PERRYTON       CLEAR     44  36  72 SW9       29.49F
$$

TXZ026-029-035-045-048-241000-
SOUTHERN PANHANDLE/SOUTH PLAINS/ROLLING PLAINS

CITY           SKY/WX    TMP DP  RH WIND       PRES   REMARKS
CHILDRESS      CLEAR     49  32  52 S9        29.59F
SEMINOLE       CLEAR     48  33  54 SW9       29.65F
LUBBOCK        CLEAR     53  33  46 S17       29.61F
PLAINVIEW      CLOUDY    45  30  55 S12       29.59F
SNYDER         CLEAR     46  35  64 S7        29.66F
$$

TXZ052-054-060>062-072-078-127-140-154-169-241000-
PERMIAN BASIN/CONCHO VALLEY/BIG COUNTRY/EDWARDS PLATEAU

CITY           SKY/WX    TMP DP  RH WIND       PRES   REMARKS
ABILENE        CLEAR     58  31  35 S18G25    29.65F
BIG SPRING     CLEAR     49  34  55 SE14      29.68F
JUNCTION       PTCLDY    53  33  46 E3        29.71F
MIDLAND        CLEAR     57  32  38 S15       29.65F
ODESSA         CLEAR     56  32  40 S13       29.65F
SAN ANGELO     PTCLDY    57  32  38 S15G24    29.67F
SONORA         CLOUDY    63  30  29 S10       29.76R
WINK           CLEAR     47  33  58 SE9       29.63F
$$

TXZ055-058-074-075-080-082-241000-
FAR WEST/SOUTHWEST MOUNTAINS/TRANS PECOS

CITY           SKY/WX    TMP DP  RH WIND       PRES   REMARKS
ALPINE         CLEAR     62  25  24 SW17G24   29.82S
DRYDEN           N/A     50  34  54 N7        29.70F
EL PASO        PTCLDY    55  27  34 W15       29.70R
FORT STOCKTON  CLEAR     55  31  39 SW8       29.68S
GUADALUPE PASS CLEAR     51  24  34 SW33G39   29.70F
MARFA          CLEAR     32  28  85 CALM      29.81S
PECOS          CLEAR     42  33  72 W5        29.65S
$$

TXZ014-016-019-021>030-083-241000
TEXAS TECH WEST TEXAS MESONET/TEXAS PANHANDLE/NORTHERN SOUTH PLAINS

CITY           SKY/WX    TMP DP  RH WIND       PRES   REMARKS
ABERNATHY 5ENE   N/A     41  33  73 S9        29.62F
AMARILLO 9NNE    N/A     51  29  42 S16       29.56S
AMARILLO 7SSE    N/A     43  29  57 S8        29.61R
AMHERST 1NE      N/A     43  28  54 S9        29.61F
BOOTLEG 11WNW    N/A     38  26  62 SW10      29.60S WCI  32
CANADIAN 6E      N/A     52  31  46 SW6       29.53R
CAPROCK CYN SP   N/A     54  31  41 SW14      29.59F
CHILDRESS 2NNE   N/A     53  33  46 S13       29.58F
CLARENDON 2WSW   N/A     44  30  56 S10       29.58F
CLAUDE 12SW      N/A     52  27  37 S9        29.59F
DIMMITT 2NE      N/A     43  28  55 S14       29.60F
FLOYDADA 2NNE    N/A     44  31  61 S9        29.61F
FRIONA 2NE       N/A     40  29  64 S12       29.60S WCI  33
GOODLETT 3W      N/A     47  33  59 S8        29.58F
HART 3N          N/A     43  30  59 SW9       29.60F
HEREFORD 2NW     N/A     43  28  54 S12       29.59S
MCLEAN 1E        N/A     49  30  46 SW9       29.57S
MEMPHIS 1NE      N/A     44  32  63 E1        29.58F
MULESHOE 2SSW    N/A     44  27  51 S7        29.61F
OLTON 6S         N/A     41  29  63 S10       29.61F
PALO DURO SP     N/A     51  27  39 S21       29.60F
PAMPA 2E         N/A     48  32  54 S12       29.57S
PLAINVIEW 1S     N/A     47  31  53 S12       29.60F
SILVERTON 7ESE   N/A     48  30  50 S10       29.60F
TULIA 2ENE       N/A     45  32  62 S8        29.60F
TURKEY 2WSW      N/A     55  34  44 SW13      29.58S
$$

TXZ033>036-039>041-045>048-241000
TEXAS TECH WEST TEXAS MESONET/SOUTH PLAINS

CITY           SKY/WX    TMP DP  RH WIND       PRES   REMARKS
AIKEN 3WSW       N/A     45  32  60 S14       29.62S
ANDREWS 2NE      N/A     52  32  45 S10       29.65F
ANTON 6SSW       N/A     43  32  63 S13       29.61F
BROWNFIELD 2S    N/A     46  33  59 SW9       29.64S
DENVR CTY 7WNW   N/A     48  31  51 S15       29.63F
GAIL 2ESE        N/A     49  34  55 S9        29.63F
LAMESA 2SE       N/A     44  35  71 S7        29.65S
LUBBOCK 3WNW     N/A     52  32  45 S12       29.62F
MORTON 1ENE      N/A     48  27  44 S17       29.61F
ODONNELL 1N      N/A     49  33  52 S13       29.63F
PLAINS 3N        N/A     46  31  54 S13       29.63F
RALLS 1SE        N/A     49  34  56 S14       29.63F
REESE CENTER     N/A     44  31  61 S9        29.62F
SEAGRAVES 1SW    N/A     49  33  53 S9        29.64S
SEMINOLE 2NNE    N/A     52  31  45 S12       29.64F
SLATON 2NE       N/A     46  36  67 S10       29.63S
SNYDER 3E        N/A     48  36  62 S7        29.66R
SUNDOWN 8SW      N/A     45  30  55 SW10      29.62F
TAHOKA 3NNE      N/A     45  34  66 S9        29.62F
WOLFFORTH 6SSW   N/A     46  33  61 S10       29.62F
$$

TXZ031-032-036>038-042>044-241000-
TEXAS TECH WEST TEXAS MESONET/ROLLING PLAINS

CITY           SKY/WX    TMP DP  RH WIND       PRES   REMARKS
ASPERMONT 3NE    N/A     46  35  66 S6        29.63F
FLUVANNA 3WNW    N/A     48  34  58 S13       29.64F
GRAHAM 5SSW      N/A     55  32  41 S18       29.62F
GUTHRIE 10WSW    N/A     50  34  53 S7        29.61F
HASKELL 1NW      N/A     51  36  57 S10       29.63F
JAYTON 1SSE      N/A     52  35  52 S9        29.62F
LK A HENRY 1NW   N/A     54  33  43 S13       29.62F
NORTHFIELD 1S    N/A     51  34  53 SW8       29.58F
ODELL 4ENE       N/A     53  36  50 S13       29.60F
PADUCAH 10SW     N/A     56  35  45 S16       29.59F
POST 1NE         N/A     56  32  40 S16       29.61F
RRING SPRGS 3N   N/A     54  36  49 S13       29.60F
SEYMOUR 3NW      N/A     54  38  54 S10       29.62F
SPUR 1W          N/A     44  34  70 SW3       29.62F
WEINERT 2NNE     N/A     48  37  65 SW6       29.64S
WHITE RVR 6NE    N/A     49  33  54 S12       29.62F
$$

TXZ052-054-060>062-072-078-127-140-154-169-241000-
TEXAS TECH WEST TEXAS MESONET/PERMIAN BASIN/
CONCHO VALLEY/BIG COUNTRY/EDWARDS PLATEAU

CITY           SKY/WX    TMP DP  RH WIND       PRES   REMARKS
COYANOSA 2N      N/A     47  32  56 SE7       29.66F
JUNCTION 1SSW    N/A     44  37  78 S1        29.72F
MERTZON 3NNE     N/A     57  32  37 S13       29.69F
SAN ANGELO 7NW   N/A     56  30  37 SE7       29.68F
STRLNG CT 4WSW   N/A     56  32  39 S10       29.68F
ST LAWRNCE 5SW   N/A     47  34  61 S8        29.68F
SWEETWATR 11SW   N/A     57  32  38 S18       29.67F
WALL 1E          N/A     60  30  31 CALM      29.67S
$$

TXZ055-058-074-075-080-082-241000-
TEXAS TECH WEST TEXAS MESONET/FAR WEST/SOUTHWEST MOUNTAINS/TRANS PECOS

CITY           SKY/WX    TMP DP  RH WIND       PRES   REMARKS
PRSMN GAP BBNP   N/A     65  26  23 S7        29.74S
GUADLPE MTN NP   N/A     55  19  24 SW21      29.73S
$$




USA.gov is the U.S. government's official web portal to all federal, state and local government web resources and services.